[[{"header":{"parameterUnit":"m.s-1","parameterCategory":1,"la1":30.2991,"la2":30.254,"lo1":-89.0895,"lo2":-89.0444,"dy":0.0017,"dx":0.0017,"nx":28,"ny":28,"refTime":"2025-01-27T09:00:00:Z","depth":0,"parameterNumber":2,"parameterNumberName":"U-component_of_WINDS"},"data":[0,0,0,0,0,0,0,0,0,0,0,0,0,0,0,0,0,0,0,0,0,0,0,0,0,0,0,0,0,0,0,0,0,0,0,0,0,0,0,0,0,0,0,0,0,0,0,0,0,0,0,0,0,0,0,0,0,0,-0.9694,-0.9694,0,-0.9722,-0.9722,-0.9722,-0.9696,-0.9694,-0.9693,-0.9692,-0.9724,-0.9726,-0.9728,0,0,0,0,0,0,0,0,0,0,0,0,0,-0.9621,-0.9623,-0.9694,-0.9694,-0.9695,-0.9722,-0.9722,-0.9723,-0.9696,-0.9694,-0.9693,-0.9692,-0.9724,-0.9726,-0.9728,0,0,0,0,0,0,0,0,0,0,0,0,0,-0.9651,-0.9623,-0.9694,-0.9685,-0.9684,-0.9722,-0.9722,-0.9723,-0.9696,-0.9694,-0.9693,-0.9691,-0.9723,-0.9726,-0.9729,-0.9778,0,0,-0.9737,-0.9738,0,0,0,0,0,0,0,0,-0.965,-0.9654,-0.9686,-0.9685,-0.9685,-0.9703,-0.9708,-0.9741,-0.9696,-0.9692,-0.9692,-0.969,-0.9719,-0.9722,-0.9731,-0.978,-0.9781,-0.9737,-0.9739,-0.974,-0.9741,0,0,0,0,0,0,0,-0.9648,-0.9653,-0.9705,-0.9686,-0.9686,-0.968,-0.9682,-0.9714,-0.9714,-0.9692,-0.969,-0.9693,-0.9718,-0.9728,-0.9731,-0.9782,-0.9737,-0.974,-0.9741,-0.9743,-0.9873,-0.9875,0,0,0,0,0,0,-0.9646,-0.9651,-0.9704,-0.9706,-0.9663,-0.9683,-0.9685,-0.9699,-0.9714,-0.9714,-0.9695,-0.9692,-0.9724,-0.9728,-0.9732,-0.9793,-0.974,-0.9743,-0.9744,-0.9872,-0.9874,-0.9876,0,0,0,0,0,0,-0.9645,-0.9651,-0.9703,-0.9678,-0.9684,-0.9686,-0.9701,-0.9701,-0.971,-0.9716,-0.9716,-0.9705,-0.9723,-0.9729,-0.9767,-0.9793,-0.9744,-0.9747,-0.987,-0.9872,-0.9875,-0.9913,0,0,0,0,0,0,-0.9643,-0.9651,-0.9669,-0.9679,-0.9686,-0.9736,-0.9703,-0.9702,-0.9715,-0.9712,-0.9725,-0.9726,-0.9722,-0.9763,-0.977,-0.9796,-0.9749,-0.9867,-0.9871,-0.9874,-0.9909,-0.9916,-0.9923,0,0,0,0,0,-0.964,-0.9679,-0.967,-0.9677,-0.9708,-0.9738,-0.9742,-0.9736,-0.9717,-0.9736,-0.9739,-0.9726,-0.9789,-0.9767,-0.9775,-0.9802,-0.9866,-0.987,-0.9874,-0.9906,-0.9915,-0.9922,0,0,0,0,0,0,-0.9674,-0.968,-0.967,-0.9713,-0.9725,-0.9733,-0.9757,-0.9746,-0.9764,-0.976,-0.9753,-0.9757,-0.9797,-0.9803,-0.9779,-0.9852,-0.9824,-0.983,-0.9847,-0.9855,-0.9861,-0.986,-0.9751,0,0,0,0,0,-0.9686,-0.9708,-0.9713,-0.9751,-0.9757,-0.9756,-0.9769,-0.9763,-0.9775,-0.9781,-0.9787,-0.9801,-0.9824,-0.9839,-0.9861,-0.9909,-0.9913,-0.9932,-0.9939,-0.9944,-0.995,-0.9977,-0.9986,-0.9889,-0.9889,-0.9889,0,0,-0.9712,-0.9718,-0.9733,-0.9757,-0.9766,-0.9791,-0.976,-0.9788,-0.9806,-0.9785,-0.9822,-0.9827,-0.9842,-0.9886,-0.9906,-0.9892,-0.9977,-0.9949,-0.9954,-0.9957,-0.9982,-0.9992,-1.0,-0.9892,-0.9891,-0.9891,0,0,-0.9772,-0.9778,-0.9811,-0.9819,-0.9832,-0.9831,-0.9839,-0.9849,-0.9851,-0.9887,-0.9872,-0.9895,-0.9934,-0.9946,-0.9957,-1.0021,-1.0009,-1.0028,-1.0064,-1.0091,-1.0098,-1.0105,-1.013,-1.0138,-1.0033,-1.0033,-1.0033,0,-0.9803,-0.9839,-0.9829,-0.9857,-0.9869,-0.985,-0.9883,-0.9893,-0.9913,-0.9922,-0.9906,-0.9955,-0.9964,-1.0011,-1.0026,-1.0035,-1.0045,-1.0027,-1.0098,-1.0104,-1.0111,-1.0134,-1.0143,-1.0036,-1.0035,-1.0035,-1.0035,0,-0.9877,-0.9902,-0.9926,-0.9945,-0.9959,-0.999,-0.9987,-1.0003,-0.9995,-0.9996,-1.0034,-1.0043,-1.0067,-1.0077,-1.0071,-1.0123,-1.0115,-1.0098,-1.0071,-1.0122,-1.0144,-1.0153,-1.0039,-1.0038,-1.0037,-1.0037,0,0,-0.9961,-0.9973,-0.9982,-0.9991,-1.0003,-1.0023,-1.0053,-1.0075,-1.0089,-1.0103,-1.013,-1.0163,-1.0148,-1.016,-1.0155,-1.0178,-1.023,-1.0159,-1.0159,-1.0173,-1.0291,-1.0304,-1.0315,-1.0221,-1.0223,-1.0224,-1.029,0,-1.0023,-1.0074,-1.0066,-1.0117,-1.0141,-1.0122,-1.0148,-1.0159,-1.0161,-1.0182,-1.0184,-1.0209,-1.0186,-1.0193,-1.0215,-1.0219,-1.0254,-1.0214,-1.0248,-1.0249,-1.0247,-1.0326,-1.0341,-1.0402,-1.0298,-1.03,-1.0301,0,-1.0102,-1.0118,-1.0171,-1.018,-1.0189,-1.0213,-1.0233,-1.0252,-1.0265,-1.0265,-1.0278,-1.0268,-1.03,-1.0271,-1.0315,-1.0288,-1.0301,-1.0305,-1.0307,-1.0312,-1.028,-1.0335,-1.0421,-1.0432,-1.0314,-1.0313,-1.0312,0,-1.016,-1.0195,-1.0231,-1.0238,-1.0249,-1.0267,-1.0273,-1.0283,-1.0297,-1.0314,-1.0323,-1.0344,-1.0356,-1.0373,-1.037,-1.0348,-1.0416,-1.0385,-1.0418,-1.0418,-1.0435,-1.0434,-1.0527,-1.044,-1.0439,-1.0439,-1.0439,0,-1.0232,-1.0265,-1.0257,-1.028,-1.0317,-1.0308,-1.0345,-1.0348,-1.0358,-1.0382,-1.0366,-1.0389,-1.0382,-1.0405,-1.0402,-1.0441,-1.0446,-1.0447,-1.0447,-1.045,-1.045,-1.046,-1.0457,-1.0442,-1.0441,-1.0441,-1.044,0,-1.0304,-1.03,-1.0338,-1.0345,-1.0347,-1.0375,-1.0381,-1.0403,-1.0402,-1.0433,-1.0439,-1.0439,-1.0465,-1.0463,-1.0492,-1.0491,-1.0538,-1.0532,-1.0534,-1.0533,-1.0566,-1.0564,-1.0671,-1.0685,-1.0587,-1.0588,-1.0588,0,-1.0351,-1.0376,-1.0385,-1.0399,-1.0406,-1.0429,-1.0442,-1.0434,-1.0449,-1.0465,-1.0485,-1.0509,-1.0529,-1.0571,-1.0575,-1.0598,-1.0593,-1.0628,-1.0596,-1.0599,-1.0596,-1.0595,-1.0598,-1.0635,-1.0637,-1.0637,-1.0638,0,-1.0435,-1.0431,-1.0451,-1.047,-1.0486,-1.0501,-1.0514,-1.0527,-1.052,-1.0538,-1.0564,-1.0579,-1.0608,-1.0633,-1.0655,-1.0662,-1.065,-1.0648,-1.0657,-1.0662,-1.0663,-1.0664,-1.0554,-1.0646,-1.0645,-1.0645,-1.0644,-1.0644,-1.0497,-1.0519,-1.0529,-1.0551,-1.056,-1.0573,-1.0594,-1.0595,-1.0616,-1.0639,-1.0633,-1.0663,-1.0675,-1.0702,-1.0711,-1.0735,-1.0722,-1.0735,-1.0739,-1.0742,-1.0747,-1.0657,-1.0739,-1.0738,-1.0738,-1.0738,-1.0738,0,-1.0582,-1.0587,-1.0608,-1.0627,-1.0645,-1.0629,-1.0643,-1.066,-1.0686,-1.0697,-1.0716,-1.0746,-1.077,-1.0775,-1.0798,-1.0817,-1.0812,-1.0823,-1.0823,-1.0825,-1.0756,-1.0747,-1.0827,-1.0827,-1.0827,-1.0827,-1.0827,-1.0827,-1.0629,-1.0665,-1.0663,-1.0704,-1.0709,-1.0737,-1.0746,-1.0759,-1.0768,-1.0802,-1.0821,-1.0824,-1.0833,-1.0857,-1.0879,-1.0879,-1.089,-1.0904,-1.0903,-1.0839,-1.083,-1.0822,-1.0813,-1.0906,-1.0906,-1.097,-1.0971,-1.0971]},{"header":{"parameterUnit":"m.s-1","parameterCategory":1,"la1":30.2991,"la2":30.254,"lo1":-89.0895,"lo2":-89.0444,"dy":0.0017,"dx":0.0017,"nx":28,"ny":28,"refTime":"2025-01-27T09:00:00:Z","depth":0,"parameterNumber":3,"parameterNumberName":"V-component_of_WINDS"},"data":[0,0,0,0,0,0,0,0,0,0,0,0,0,0,0,0,0,0,0,0,0,0,0,0,0,0,0,0,0,0,0,0,0,0,0,0,0,0,0,0,0,0,0,0,0,0,0,0,0,0,0,0,0,0,0,0,0,0,-3.2532,-3.2532,0,-3.258,-3.2581,-3.2581,-3.2548,-3.2547,-3.2545,-3.2544,-3.2592,-3.2594,-3.2597,0,0,0,0,0,0,0,0,0,0,0,0,0,-3.2411,-3.2413,-3.2532,-3.2532,-3.2533,-3.258,-3.2581,-3.2581,-3.2548,-3.2546,-3.2545,-3.2543,-3.2591,-3.2594,-3.2597,0,0,0,0,0,0,0,0,0,0,0,0,0,-3.2462,-3.2414,-3.2532,-3.2522,-3.2522,-3.258,-3.2581,-3.2581,-3.2549,-3.2546,-3.2544,-3.2542,-3.259,-3.2594,-3.2598,-3.2667,0,0,-3.261,-3.2612,0,0,0,0,0,0,0,0,-3.2459,-3.2466,-3.2523,-3.2523,-3.2523,-3.2556,-3.2555,-3.261,-3.2549,-3.2538,-3.2544,-3.2541,-3.2582,-3.2586,-3.26,-3.2669,-3.2671,-3.261,-3.2613,-3.2614,-3.2616,0,0,0,0,0,0,0,-3.2455,-3.2464,-3.2551,-3.2524,-3.2524,-3.2515,-3.252,-3.2566,-3.2572,-3.2539,-3.2537,-3.2543,-3.2581,-3.2596,-3.2601,-3.2672,-3.261,-3.2614,-3.2616,-3.2618,-3.2802,-3.2804,0,0,0,0,0,0,-3.2453,-3.2461,-3.2549,-3.2552,-3.2485,-3.2519,-3.2525,-3.2547,-3.2571,-3.2573,-3.2545,-3.2541,-3.259,-3.2596,-3.2602,-3.2686,-3.2614,-3.2618,-3.262,-3.28,-3.2803,-3.2805,0,0,0,0,0,0,-3.245,-3.2461,-3.2547,-3.2506,-3.2516,-3.2524,-3.255,-3.255,-3.2565,-3.2576,-3.2577,-3.256,-3.2589,-3.2597,-3.2652,-3.2688,-3.262,-3.2624,-3.2797,-3.2801,-3.2804,-3.2854,0,0,0,0,0,0,-3.2447,-3.246,-3.2487,-3.2507,-3.2519,-3.2596,-3.2552,-3.2552,-3.2572,-3.2568,-3.259,-3.2591,-3.2588,-3.2646,-3.2656,-3.2692,-3.2627,-3.2794,-3.2798,-3.2803,-3.2849,-3.2859,-3.2868,0,0,0,0,0,-3.2443,-3.2499,-3.2488,-3.2499,-3.2552,-3.2598,-3.2605,-3.2601,-3.2575,-3.2602,-3.2609,-3.259,-3.2682,-3.2652,-3.2662,-3.27,-3.2791,-3.2797,-3.2802,-3.2845,-3.2857,-3.2867,0,0,0,0,0,0,-3.2482,-3.2501,-3.249,-3.2554,-3.2575,-3.2593,-3.2626,-3.2613,-3.2641,-3.2636,-3.2629,-3.2634,-3.2692,-3.2701,-3.2668,-3.2769,-3.2732,-3.274,-3.2761,-3.2773,-3.2782,-3.2779,-3.263,0,0,0,0,0,-3.2498,-3.2534,-3.2549,-3.2604,-3.2615,-3.2619,-3.2639,-3.2634,-3.2655,-3.2663,-3.2674,-3.2695,-3.2729,-3.2751,-3.2782,-3.285,-3.2855,-3.2882,-3.2891,-3.2898,-3.2905,-3.2943,-3.2955,-3.2824,-3.2824,-3.2824,0,0,-3.2531,-3.2546,-3.257,-3.2612,-3.2628,-3.2665,-3.2627,-3.2668,-3.2695,-3.2669,-3.2722,-3.2731,-3.2754,-3.2816,-3.2844,-3.2826,-3.2943,-3.2905,-3.2911,-3.2914,-3.295,-3.2963,-3.2974,-3.2828,-3.2827,-3.2826,0,0,-3.2612,-3.2627,-3.2675,-3.2692,-3.2716,-3.2718,-3.273,-3.275,-3.2755,-3.2808,-3.279,-3.2823,-3.288,-3.2898,-3.2914,-3.3002,-3.2987,-3.3013,-3.3061,-3.3097,-3.3108,-3.3117,-3.315,-3.3161,-3.302,-3.302,-3.302,0,-3.2651,-3.2707,-3.2701,-3.2744,-3.2764,-3.2742,-3.2791,-3.2807,-3.2841,-3.2855,-3.2834,-3.2906,-3.292,-3.2987,-3.3008,-3.3022,-3.3035,-3.3011,-3.3107,-3.3116,-3.3124,-3.3155,-3.3168,-3.3023,-3.3023,-3.3022,-3.3022,0,-3.2754,-3.2793,-3.2829,-3.2863,-3.2886,-3.2932,-3.2933,-3.2957,-3.295,-3.2955,-3.3009,-3.3025,-3.306,-3.3075,-3.3068,-3.3141,-3.3129,-3.3108,-3.3071,-3.314,-3.3169,-3.3181,-3.3027,-3.3026,-3.3025,-3.3025,0,0,-3.2861,-3.2892,-3.2905,-3.292,-3.2946,-3.2976,-3.3021,-3.3055,-3.3077,-3.31,-3.3138,-3.3188,-3.3168,-3.3187,-3.3182,-3.3214,-3.3284,-3.3189,-3.3189,-3.3207,-3.3367,-3.3384,-3.3397,-3.3274,-3.3276,-3.3277,-3.3365,0,-3.2944,-3.3023,-3.302,-3.3093,-3.313,-3.311,-3.315,-3.3169,-3.3175,-3.3207,-3.3212,-3.3248,-3.3219,-3.3231,-3.3262,-3.3269,-3.3316,-3.3263,-3.3309,-3.3311,-3.3305,-3.3412,-3.343,-3.3512,-3.3376,-3.3378,-3.338,0,-3.3052,-3.308,-3.3158,-3.3179,-3.3195,-3.323,-3.3262,-3.3292,-3.3314,-3.3316,-3.3338,-3.3327,-3.3373,-3.3334,-3.3397,-3.336,-3.3379,-3.3385,-3.3389,-3.3394,-3.335,-3.3422,-3.3538,-3.3551,-3.3397,-3.3396,-3.3395,0,-3.3124,-3.3181,-3.3236,-3.3249,-3.3275,-3.33,-3.3312,-3.3332,-3.3353,-3.3381,-3.3395,-3.3427,-3.3445,-3.347,-3.3469,-3.3441,-3.3533,-3.3494,-3.3537,-3.3537,-3.3558,-3.3557,-3.368,-3.3568,-3.3568,-3.3567,-3.3567,0,-3.3218,-3.3267,-3.3269,-3.3302,-3.3356,-3.3351,-3.3405,-3.3414,-3.3432,-3.3467,-3.3451,-3.3484,-3.348,-3.3513,-3.3512,-3.3565,-3.3573,-3.3576,-3.3575,-3.3578,-3.3578,-3.3591,-3.3586,-3.3571,-3.357,-3.3569,-3.3569,0,-3.3308,-3.3311,-3.3369,-3.3389,-3.3395,-3.3434,-3.3451,-3.3483,-3.3487,-3.3531,-3.3542,-3.3548,-3.3587,-3.3588,-3.3631,-3.3631,-3.3696,-3.3688,-3.3689,-3.3688,-3.3731,-3.3727,-3.3868,-3.3887,-3.3761,-3.3762,-3.3763,0,-3.3368,-3.3406,-3.343,-3.3452,-3.3466,-3.3502,-3.3524,-3.3521,-3.3544,-3.3573,-3.3601,-3.3638,-3.3668,-3.373,-3.3739,-3.3773,-3.3766,-3.3813,-3.3771,-3.3773,-3.3769,-3.3767,-3.3771,-3.3822,-3.3823,-3.3824,-3.3825,0,-3.3476,-3.3476,-3.3508,-3.3542,-3.3569,-3.3595,-3.3619,-3.3638,-3.3637,-3.3665,-3.3704,-3.3727,-3.3772,-3.381,-3.3842,-3.3854,-3.384,-3.3838,-3.385,-3.3854,-3.3854,-3.3856,-3.3713,-3.3836,-3.3835,-3.3834,-3.3833,-3.3833,-3.3554,-3.3586,-3.3609,-3.3646,-3.3664,-3.3687,-3.3718,-3.3727,-3.376,-3.3797,-3.3792,-3.3837,-3.3858,-3.3901,-3.3916,-3.395,-3.3934,-3.3951,-3.3955,-3.396,-3.3965,-3.3847,-3.3956,-3.3955,-3.3955,-3.3955,-3.3955,0,-3.3661,-3.3675,-3.3709,-3.3744,-3.3773,-3.3758,-3.3784,-3.3809,-3.3849,-3.387,-3.39,-3.3946,-3.3982,-3.3994,-3.4029,-3.4054,-3.4049,-3.4064,-3.4062,-3.4066,-3.3977,-3.3964,-3.4068,-3.4068,-3.4068,-3.4068,-3.4068,-3.4068,-3.3721,-3.3776,-3.3778,-3.3842,-3.3855,-3.3899,-3.3915,-3.3937,-3.3954,-3.4006,-3.4037,-3.4044,-3.4062,-3.4098,-3.4131,-3.4134,-3.4148,-3.4166,-3.4166,-3.4083,-3.4072,-3.4061,-3.4049,-3.4169,-3.4169,-3.4252,-3.4252,-3.4253]}]]